Find Starlink 32664

NORAD ID: 62204 Int'l Des: 2024-229 Owner: SPXS Country: US Constellation: starlink operational
LEOCIRCULAR

現在のビュー

3D地球を読み込み中...

About Starlink 32664

Starlink 32664 (NORAD 62204) is a starlink constellation satellite (v2 mini) launched Dec 4, 2024 by SPXS of US. It operates in LEO, CIRCULAR orbit with a mass of 730.00 kg.

次回通過

Passes for default location (London). Set your location on the main map for personalized predictions.

高度履歴

Loading altitude history...

軌道要素

1 62204U 24229N 26263.58335648 .00102512 00000-0 50791-3 0 9990
2 62204 42.9852 198.2084 0028324 176.9888 17.0987 15.80351065 5948
Epoch: Sep 20, 2026 • Age: 12 hours

現在のステータス

高度 322.4 km
遠地点 / 近地点 N/A
速度 7.72 km/s
衛星直下点 -27.93°S, 15.72°E
打ち上げ日 Dec 4, 2024
運用期間 1.7 years
タイプ internet

技術仕様

分類 Payload
質量 730.00 kg
乾燥質量 700.00 kg
長さ 0.30 m
スパン 29.00 m
形状 ? Box + pan
製造者 SPXS
バスタイプ Starlink V2M
フェーズステータス In Orbit
所有者/国 SPXS/US

Most Searched